******************************************************************************* JPL/HORIZONS ATLAS (C/2025 N1) 2025-Dec-12 17:47:18 Rec #:90004922 (+COV) Soln.date: 2025-Dec-11_08:30:40 # obs: 758 (209 days) IAU76/J2000 helio. ecliptic osc. elements (au, days, deg., period=Julian yrs): EPOCH= 2460891.5 ! 2025-Aug-04.0000000 (TDB) RMSW= n.a. EC= 6.139433723877776 QR= 1.356418237859906 TP= 2460977.98216112 OM= 322.1566409267227 W= 128.0097228929673 IN= 175.1130926962195 A= -.2639236753959869 MA= 91.34397549863638 ADIST= 9.999999E99 PER= 9.999999E99 N= 7.269198831 ANGMOM= .053531589 DAN= -3.48268 DDN= 2.02569 L= 194.0456333 B= 3.8486516 MOID= .365134 TP= 2025-Oct-29.4821611200 Comet physical (GM= km^3/s^2; RAD= km): GM= n.a. RAD= n.a. M1= 12.5 M2= n.a. k1= 4.5 k2= n.a. PHCOF= n.a. Comet non-gravitational force model (AMRAT=m^2/kg;A1-A3=au/d^2;DT=days;R0=au): AMRAT= 0. DT= 0. A1= 4.368369102478E-8 A2= 1.595561385155E-8 A3= -5.178292989731E-9 Non-standard or simulated/proxy model: ALN= 1. NK= 0. NM= 2. NN= 0. R0= 1. COMET comments 1: soln ref.= JPL#42, data arc: 2025-05-15 to 2025-12-10 2: k1=4.5;Nongravitational accels. using g(r) = (1 au/ r)^2 for CO2 ******************************************************************************* ******************************************************************************* Ephemeris / WWW_USER Fri Dec 12 17:47:19 2025 Pasadena, USA / Horizons ******************************************************************************* Target body name: ATLAS (C/2025 N1) {source: JPL#42} Center body name: Jupiter (599) {source: jup365_merged} Center-site name: BODYCENTRIC ******************************************************************************* Start time : A.D. 2026-Mar-16 12:16:00.0000 UT Stop time : A.D. 2026-Mar-17 00:00:00.0000 UT Step-size : 1440 minutes ******************************************************************************* Target pole/equ : undefined Target radii : undefined Center geodetic : 0.0, 0.0, -71492.0 {W-lon(deg),Lat(deg),Alt(km)} Center cylindric: 0.0, 0.0, 0.0 {W-lon(deg),Dxy(km),Dz(km)} Center pole/equ : IAU_JUPITER {West-longitude positive} Center radii : 71492.0, 71492.0, 66854.0 km {Equator_a, b, pole_c} Target primary : Sun Vis. interferer : IO (R_eq= 1829.400) km {source: jup365_merged} Rel. light bend : Sun {source: jup365_merged} Rel. lght bnd GM: 1.3271E+11 km^3/s^2 Small-body perts: Yes {source: SB441-N16} Atmos refraction: NO (AIRLESS) RA format : HMS Time format : CAL Calendar mode : Mixed Julian/Gregorian EOP file : eop.251212.p260310 EOP coverage : DATA-BASED 1962-JAN-20 TO 2025-DEC-12. PREDICTS-> 2026-MAR-09 Units conversion: 1 au= 149597870.700 km, c= 299792.458 km/s, 1 day= 86400.0 s Table cut-offs 1: Elevation (-90.0deg=NO ),Airmass n.a. , Daylight (NO ) Table cut-offs 2: Solar elongation ( 0.0,180.0=NO ),Local Hour Angle( 0.0=NO ) Table cut-offs 3: RA/DEC angular rate ( 0.0=NO ) ******************************************************************************* Initial IAU76/J2000 heliocentric ecliptic osculating elements (au, days, deg.): EPOCH= 2460891.5 ! 2025-Aug-04.0000000 (TDB) RMSW= n.a. EC= 6.139433723877776 QR= 1.356418237859906 TP= 2460977.98216112 OM= 322.1566409267227 W= 128.0097228929673 IN= 175.1130926962195 Equivalent ICRF heliocentric cartesian coordinates (au, au/d): X=-1.963256850951576E-01 Y=-3.196023732443091E+00 Z=-1.125678454066144E+00 VX=-1.385224954064197E-02 VY= 3.105097869615599E-02 VZ= 1.181192524474764E-02 Comet physical (GM= km^3/s^2; RAD= km): GM= n.a. RAD= n.a. M1= 12.5 M2= n.a. k1= 4.5 k2= n.a. PHCOF= n.a. Comet non-gravitational force model (AMRAT=m^2/kg;A1-A3=au/d^2;DT=days;R0=au): AMRAT= 0. DT= 0. A1= 4.368369102478E-8 A2= 1.595561385155E-8 A3= -5.178292989731E-9 Non-standard or simulated/proxy model: ALN= 1. NK= 0. NM= 2. NN= 0. R0= 1. ******************************************************************************************************************************** Date__(UT)__HR:MN r rdot delta deldot VmagSn VmagOb RNG_3sigma RNGRT_3sig ******************************************************************************************************************************** $$SOE 2026-Mar-16 12:16 5.101470820881 58.1692886 0.35835231975421 -0.0284092 60.9383912 65.9264691 10169.6758 0.0008183 $$EOE ******************************************************************************************************************************** Column meaning: TIME Times PRIOR to 1962 are UT1, a mean-solar time closely related to the prior but now-deprecated GMT. Times AFTER 1962 are in UTC, the current civil or "wall-clock" time-scale. UTC is kept within 0.9 seconds of UT1 using integer leap-seconds for 1972 and later years. Conversion from the internal Barycentric Dynamical Time (TDB) of solar system dynamics to the non-uniform civil UT time-scale requested for output has not been determined for UTC times after the next July or January 1st. Therefore, the last known leap-second is used as a constant over future intervals. Time tags refer to the UT time-scale conversion from TDB on Earth regardless of observer location within the solar system, although clock rates may differ due to the local gravity field and no analog to "UT" may be defined for that location. Any 'b' symbol in the 1st-column denotes a B.C. date. First-column blank (" ") denotes an A.D. date. CALENDAR SYSTEM Mixed calendar mode was active such that calendar dates after AD 1582-Oct-15 (if any) are in the modern Gregorian system. Dates prior to 1582-Oct-5 (if any) are in the Julian calendar system, which is automatically extended for dates prior to its adoption on 45-Jan-1 BC. The Julian calendar is useful for matching historical dates. The Gregorian calendar more accurately corresponds to the Earth's orbital motion and seasons. A "Gregorian-only" calendar mode is available if such physical events are the primary interest. NOTE: "n.a." in output means quantity "not available" at the print-time. STATISTICAL UNCERTAINTIES Output includes formal +/- 3 standard-deviation statistical orbit uncertainty quantities. There is a 99.7% (1-D) or 98.9% (2-D) chance the actual value is within given bounds. These statistical calculations assume observational data errors are random. If there are systematic biases (such as timing, reduction or star-catalog errors), results can be optimistic. Because the epoch covariance is mapped using linearized variational partial derivatives, results can also be optimistic for times far from the solution epoch, particularly for objects having close planetary encounters. 'r rdot' = The Sun's apparent range ("r", light-time aberrated) and range-rate ("rdot") relative to the target center, as seen by the observer. A positive "rdot" means the target center was moving away from the Sun, negative means moving toward the Sun. Units: AU and KM/S 'delta deldot' = Apparent range ("delta", light-time aberrated) and range-rate ("delta-dot") of the target center relative to the observer. A positive "deldot" means the target center is moving away from the observer, negative indicates movement toward the observer. Units: AU and KM/S 'VmagSn VmagOb' = Magnitude of target centers' velocity with respect to the Sun ("VmagSn") and the observer ("VmagOb") at the time light left the target center to be observed (print time minus down-leg light-time). These are absolute values of the velocity vectors (total speeds) and do NOT indicate direction of motion. Units: KM/S 'RNG_3sigma RNGRT_3sig' = Range and range rate (radial velocity) formal 3-standard-deviation uncertainties. Units: KM, KM/S Computations by ... Solar System Dynamics Group, Horizons On-Line Ephemeris System 4800 Oak Grove Drive, Jet Propulsion Laboratory Pasadena, CA 91109 USA General site: https://ssd.jpl.nasa.gov/ Mailing list: https://ssd.jpl.nasa.gov/email_list.html System news : https://ssd.jpl.nasa.gov/horizons/news.html User Guide : https://ssd.jpl.nasa.gov/horizons/manual.html Connect : browser https://ssd.jpl.nasa.gov/horizons/app.html#/x API https://ssd-api.jpl.nasa.gov/doc/horizons.html command-line telnet ssd.jpl.nasa.gov 6775 e-mail/batch https://ssd.jpl.nasa.gov/ftp/ssd/horizons_batch.txt scripts https://ssd.jpl.nasa.gov/ftp/ssd/SCRIPTS Author : Jon.D.Giorgini@jpl.nasa.gov ******************************************************************************************************************************** !$$SOF CENTER = '@599' COMMAND = '3I' QUANTITIES = '19,20,22,39' START_TIME = '2026-03-16 12:16' STEP_SIZE = '1 day' STOP_TIME = '2026-03-17'